Location: Monteux
(44.0348°N, 4.9972°E)
Time: 14:32:08
(UTC+00:00)

USA 267 - Pass Details

Date: 30 November 2020
Orbit: 1100 x 1107 km, 123.0° (Epoch: 18 January)

Event Time Altitude Azimuth Distance (km) Brightness Sun altitude
Exits shadow 18:18:23 45° 68° (ENE) 1,473 3.4 -23.6°
Maximum altitude 18:19:50 53° 29° (NNE) 1,340 3.4 -23.9°
Drops below altitude 10° 18:26:08 10° 315° (NW) 2,968 6.0 -25.0°
Sets 18:28:41 0° 311° (NW) 3,929 6.8 -25.5°
